Probability
0 0 0 0 0 0 0 0 0 0 1 1 1 3 4 4 4 6 10 12 13 12 10 10 10 11 13 15 15 13 9 6 7 11 12 11 10 8 6 5 4 4 4 5
0 0 0 0 0 0 0 0 0 0 0 0 1 2 3 3 3 4 7 10 11 11 11 11 11 11 12 15 16 14 11 8 8 10 11 9 8 6 5 4 4 4 3 4
0 0 0 0 0 0 0 0 0 0 0 0 0 1 1 2 2 2 4 6 9 11 12 12 12 11 10 11 14 14 13 11 9 9 10 8 6 5 4 4 4 3 3 3
0 0 0 0 0 0 0 0 0 0 0 0 0 0 1 2 2 1 1 3 6 9 11 12 12 10 8 8 11 12 11 11 10 10 10 8 5 4 4 3 3 3 3 3
0 0 0 0 0 0 0 0 0 0 0 0 0 0 0 1 1 0 0 1 3 6 8 10 9 7 7 8 9 10 9 9 10 9 9 8 6 4 3 3 3 3 3 2
0 0 0 0 0 0 0 0 0 0 0 0 0 0 0 0 0 0 0 0 2 4 6 6 5 5 7 10 11 10 9 8 7 7 7 8 6 4 3 3 3 3 1 1
0 0 0 0 0 0 0 0 0 0 0 0 0 0 0 0 0 0 0 1 4 6 5 4 4 6 9 11 12 11 9 7 6 5 5 6 6 4 3 3 3 2 1 0
0 0 0 0 0 0 0 0 0 0 0 0 0 0 0 0 0 0 0 2 5 6 5 4 5 8 10 11 11 11 9 7 5 4 3 4 5 4 3 3 3 2 1 1
0 0 0 0 0 0 0 0 0 0 0 0 0 0 0 0 0 1 2 2 3 4 4 4 5 8 8 8 8 9 9 7 5 3 3 3 4 3 3 2 2 1 1 1
0 0 0 0 0 0 0 0 0 0 0 0 0 0 0 0 0 1 2 2 3 3 3 3 4 5 4 4 5 6 7 6 4 3 3 3 3 3 2 1 1 1 1 1
0 0 0 0 0 0 0 0 0 0 0 0 0 0 0 0 0 1 2 2 2 3 3 3 3 3 2 1 3 5 5 4 3 3 3 3 3 3 2 1 0 0 0 0
0 0 0 0 0 0 0 0 0 0 0 0 0 0 0 0 0 1 2 1 1 2 3 3 2 1 1 2 3 4 4 3 3 3 3 3 3 3 3 1 0 0 0 0
0 0 0 0 0 0 0 0 0 0 0 0 0 0 0 0 1 2 2 1 1 2 3 1 1 0 1 2 3 3 3 3 3 3 3 3 3 3 3 2 1 0 0 0
0 0 0 0 0 0 0 0 0 0 0 0 0 0 0 0 1 2 2 1 1 2 2 1 0 0 0 1 1 1 2 2 3 3 3 3 3 3 3 3 2 1 0 0
0 0 0 0 0 0 0 0 0 0 0 0 0 0 0 0 1 2 2 1 0 1 1 0 0 0 0 0 0 0 1 1 1 2 3 3 3 3 3 3 2 1 0 0
0 0 0 0 0 0 0 0 0 0 0 0 0 0 0 0 1 2 2 1 0 0 0 0 0 0 0 0 0 0 0 0 0 1 3 3 3 3 3 3 3 1 0 0
0 0 0 0 0 0 0 0 0 0 0 0 0 0 0 0 0 1 1 0 0 0 0 0 0 0 0 0 0 0 0 0 0 1 2 2 2 2 2 3 3 2 1 0
0 0 0 0 0 0 0 0 0 0 0 0 0 0 0 0 0 0 0 0 0 0 0 0 0 0 0 0 0 0 0 0 0 0 1 1 1 1 1 1 3 3 2 1
0 0 0 0 0 0 0 0 0 0 0 0 0 0 0 0 1 0 0 0 0 0 0 0 0 0 0 0 0 0 0 0 0 0 0 0 0 0 0 1 2 3 2 1
0 0 0 0 0 0 0 0 0 0 0 0 0 0 0 0 0 0 0 0 0 0 0 0 0 0 0 0 0 0 0 0 0 0 0 0 0 0 0 1 2 2 1 0
0 0 0 0 0 0 0 0 0 0 0 0 0 0 0 1 1 0 0 0 0 0 0 0 0 0 0 0 0 0 0 0 0 0 0 0 0 0 0 1 1 1 0 0
0 0 0 0 0 0 0 0 0 0 0 0 0 0 1 2 2 1 0 0 0 0 0 0 0 0 0 0 0 0 0 0 0 0 0 0 0 0 0 0 0 0 0 0
0 0 0 0 0 0 0 0 0 0 0 0 0 0 1 2 3 2 0 0 0 0 0 0 0 0 0 0 0 0 0 0 0 0 0 0 0 0 0 0 0 0 0 0
0 0 0 0 0 0 0 0 0 0 0 0 0 0 0 1 2 1 0 0 0 0 0 0 0 0 0 0 0 0 0 0 0 0 0 0 0 0 0 0 0 0 0 0
0 0 0 0 0 0 0 0 0 0 0 0 0 0 0 0 0 0 0 0 0 0 0 0 0 0 0 0 0 0 0 0 0 0 0 0 0 0 0 0 0 0 0 0
0 0 0 0 0 0 0 0 0 0 0 0 0 0 0 0 0 0 0 0 0 0 0 0 0 0 0 0 0 0 0 0 0 0 0 0 0 0 0 0 0 0 0 0
Wind_Speed
3 5 1 3 3 3 2 2 1 3 2 2 2 2 2 1 3 3 3 3 4 3 2 2 2 3 4 3 3 3 3 2 3 2 2 1 0 1 1 1 1 2 2 2
6 2 3 2 2 3 3 2 1 2 2 2 1 0 1 1 3 4 5 4 4 3 2 3 2 3 3 3 3 3 3 3 2 2 2 1 1 0 0 1 1 2 2 2
2 4 1 2 3 3 0 3 3 2 2 4 2 3 2 2 1 1 1 2 3 4 4 3 4 3 2 2 3 3 3 3 3 3 3 2 2 1 1 1 2 2 3 3
1 2 1 2 0 2 2 3 3 3 3 1 1 2 4 3 3 2 1 1 2 2 3 3 3 3 2 2 2 3 3 3 2 2 3 3 2 1 1 1 1 3 3 3
3 1 1 0 2 2 3 1 3 2 3 2 2 1 6 1 3 4 3 2 2 2 3 3 3 3 3 2 2 3 3 3 3 2 3 3 2 1 0 1 1 2 3 3
3 2 1 2 1 2 3 5 5 5 5 2 2 2 6 4 5 3 3 3 2 3 3 3 2 3 3 3 3 3 3 3 2 2 2 3 2 1 1 1 1 2 2 2
6 5 3 1 3 4 5 6 5 5 4 4 2 2 7 5 4 4 4 4 3 3 3 3 3 3 2 3 3 3 3 3 2 2 2 2 2 2 1 0 1 1 2 2
3 5 4 2 1 2 1 6 6 3 4 5 3 4 7 3 3 2 3 3 2 2 3 3 4 3 3 3 3 4 4 3 2 2 2 2 2 1 0 1 1 1 1 2
0 5 4 3 1 3 3 2 4 6 1 1 5 5 7 1 1 2 2 2 2 2 3 3 3 3 3 3 3 4 4 3 2 2 1 1 1 1 0 1 1 1 2 2
2 3 5 4 4 5 3 5 5 4 2 3 5 4 5 4 4 3 3 3 2 2 3 3 3 3 3 3 3 3 3 3 2 1 1 1 0 0 0 0 2 2 2 2
1 1 5 4 2 1 2 3 4 3 3 4 3 7 6 6 6 5 5 5 4 4 4 4 4 3 3 3 3 3 2 2 1 1 1 1 0 1 1 1 1 2 2 3
2 3 2 5 4 1 1 3 5 3 2 3 3 9 4 3 4 4 4 4 4 4 4 4 4 4 4 3 3 3 2 2 1 1 1 0 0 1 1 1 2 2 2 3
1 4 3 7 6 4 2 0 2 4 3 3 3 8 2 1 1 3 4 4 4 5 5 4 4 4 4 3 3 2 2 1 1 1 1 0 0 0 1 2 2 2 2 2
3 3 5 6 6 3 4 4 2 3 3 4 7 9 6 3 2 3 4 5 5 5 5 5 4 4 3 3 3 2 2 1 1 1 1 1 2 2 2 2 2 2 2 2
3 1 4 6 6 4 5 7 5 5 6 7 8 7 8 5 4 4 4 5 5 5 5 6 5 4 3 2 2 1 2 2 2 1 1 2 2 2 2 2 2 2 1 2
3 1 1 3 3 4 6 7 6 6 5 5 4 7 5 2 1 2 4 6 6 6 6 6 6 5 4 3 3 2 2 2 2 2 2 2 1 2 2 2 2 1 1 2
1 1 1 4 5 4 5 4 3 2 2 3 4 6 3 1 1 3 4 5 6 7 6 7 6 6 5 4 4 3 3 2 2 2 2 2 2 2 2 2 1 1 1 1
3 3 1 2 3 4 6 2 1 2 2 1 3 4 3 3 2 2 3 5 5 5 6 6 5 4 3 3 3 2 2 2 2 1 2 2 2 2 1 1 1 1 1 1
4 4 2 1 2 6 6 3 2 2 4 2 2 4 3 2 3 3 1 3 5 4 4 5 5 4 4 3 3 3 2 2 2 2 2 2 2 1 1 2 2 1 1 1
3 3 3 1 1 5 5 4 4 0 3 3 3 2 2 2 2 4 2 1 2 1 2 3 4 3 4 3 3 3 2 2 3 3 3 3 2 2 2 2 2 1 1 2
3 3 1 2 4 7 5 5 4 1 6 5 3 3 2 3 4 5 3 2 2 2 3 4 4 4 4 4 4 3 2 4 4 2 2 2 2 2 2 1 1 1 1 1
2 2 2 2 3 7 4 4 1 5 6 5 4 3 3 3 3 3 2 2 3 2 3 4 4 4 3 3 4 3 4 4 2 1 1 1 1 1 1 0 1 0 0 1
4 5 4 6 7 6 4 5 6 4 5 5 4 4 3 2 2 2 2 2 3 3 4 4 4 3 2 3 4 4 4 2 2 1 1 1 0 0 1 1 1 1 0 1
4 2 2 5 8 8 8 7 6 5 6 6 4 3 3 3 3 2 2 2 3 3 4 4 4 4 3 3 3 4 3 3 3 2 1 0 0 0 1 0 1 1 2 2
5 2 3 7 9 8 6 6 6 5 5 4 4 4 3 3 3 3 3 3 3 3 3 4 4 5 4 3 3 3 3 3 3 2 1 1 1 1 1 1 2 3 4 4
5 6 6 9 9 7 10 8 6 6 6 6 4 4 3 3 4 3 3 3 3 4 4 4 4 4 4 3 2 2 3 4 4 2 2 1 1 1 1 1 3 4 4 5
Wind_Direction
34 65 56 233 195 176 154 134 264 275 286 100 157 194 271 211 162 171 179 179 175 188 173 130 137 131 129 126 126 135 131 130 134 130 136 131 107 26 25 8 358 344 336 325
38 0 257 220 138 124 124 103 310 314 4 99 132 275 291 218 196 202 202 199 190 181 168 152 143 129 142 148 142 136 141 147 150 146 133 119 120 83 351 330 350 346 335 319
157 246 254 112 100 88 63 179 211 207 33 51 84 340 305 296 312 280 227 190 184 178 181 172 158 152 152 153 147 137 127 124 120 119 108 95 78 53 11 346 346 343 339 330
253 269 55 81 137 135 271 236 179 150 97 325 88 255 281 269 285 281 269 193 199 185 161 162 152 153 167 171 119 117 118 111 109 116 128 136 150 182 245 295 317 334 352 350
297 310 83 279 258 176 224 106 104 103 113 60 12 140 283 313 273 259 246 238 220 192 164 155 159 161 153 138 131 131 125 116 121 134 144 137 124 124 29 359 357 346 344 349
283 299 198 226 298 123 121 71 53 47 67 27 276 166 271 245 232 246 237 231 212 183 166 155 142 135 135 130 125 119 120 114 109 110 119 126 132 124 81 9 355 345 337 344
340 337 337 40 37 20 74 82 31 6 11 262 287 210 249 245 227 213 215 220 204 175 167 163 153 145 147 139 130 112 114 103 99 108 110 117 134 137 142 275 309 330 333 332
1 316 316 349 152 194 127 129 147 193 231 277 309 245 257 242 224 203 189 187 170 167 172 178 174 155 156 149 138 117 115 115 111 112 109 104 108 123 148 292 289 291 292 297
234 280 308 331 328 132 118 118 155 134 152 282 280 286 301 254 242 196 167 149 165 167 164 167 158 145 144 142 139 134 127 118 113 112 115 106 107 115 75 329 317 314 313 312
179 270 301 318 30 27 102 137 92 102 144 271 286 274 252 250 239 217 190 186 181 155 146 142 143 137 133 135 130 119 122 133 130 111 100 90 80 63 62 9 332 334 331 333
80 168 312 355 19 295 42 72 96 110 156 173 268 271 233 222 215 205 204 194 180 168 159 149 139 133 127 121 122 123 119 116 114 109 100 81 33 40 47 27 333 331 330 331
47 108 292 283 280 260 164 154 139 139 242 189 207 269 284 221 205 194 196 182 167 157 147 138 134 130 127 130 137 142 142 143 159 154 140 174 121 59 33 346 325 332 328 326
73 87 6 342 346 359 19 81 128 128 130 176 201 267 311 48 169 196 182 174 163 151 142 136 137 147 150 149 150 164 158 175 172 148 146 207 306 312 311 304 312 324 322 325
101 122 174 218 242 268 289 283 228 146 172 224 230 258 287 281 242 214 193 178 164 160 159 157 159 166 165 162 159 167 180 184 173 158 168 232 250 256 266 279 299 310 312 323
76 200 235 247 258 256 258 266 249 228 218 223 251 257 273 257 226 204 181 168 163 171 175 173 174 177 173 172 178 184 192 181 166 166 213 245 251 255 265 277 290 302 312 318
45 214 292 292 278 276 278 274 258 250 242 244 269 279 290 293 138 162 174 174 181 186 190 187 182 180 183 188 193 199 209 197 179 207 242 254 252 256 262 271 275 294 319 329
349 128 6 284 305 327 288 270 252 246 247 212 243 270 306 326 254 204 183 182 195 195 193 192 191 191 191 193 191 198 211 197 193 231 256 269 255 254 259 265 289 296 314 333
163 138 155 288 356 266 252 273 270 244 286 295 276 286 274 258 268 235 188 190 200 201 194 191 187 187 189 186 184 190 192 185 199 231 261 275 266 261 281 288 280 290 298 316
168 150 137 139 268 278 296 329 344 288 296 327 316 328 344 16 16 327 251 203 198 203 199 188 183 180 177 180 176 166 186 194 207 230 246 256 250 248 290 294 273 268 289 306
65 95 114 138 240 258 265 318 319 264 280 332 351 342 341 21 333 284 279 241 203 195 188 175 163 156 168 182 161 161 190 206 227 234 243 249 239 223 237 264 258 253 246 269
5 17 123 207 241 266 277 327 359 21 274 309 303 277 260 252 240 255 265 257 198 186 181 166 161 170 183 174 155 170 200 227 236 238 247 247 234 222 223 250 247 253 279 300
224 230 228 186 229 260 320 6 308 255 283 288 277 265 269 274 281 272 257 220 182 168 171 164 165 174 176 163 158 180 223 234 227 210 241 254 241 228 199 166 288 275 279 311
221 204 202 203 228 259 292 275 276 269 283 282 271 276 260 276 282 283 254 200 183 186 183 167 162 166 177 175 174 193 229 216 185 175 220 238 287 113 121 150 238 300 289 286
267 224 222 266 270 275 283 281 285 282 282 281 275 271 248 251 255 256 227 198 182 191 182 162 155 168 194 204 200 209 210 180 172 181 200 164 147 314 332 252 218 242 264 272
244 248 256 267 278 294 286 271 275 292 293 290 294 280 244 224 246 230 204 200 191 186 178 163 170 184 200 205 220 218 185 166 170 185 198 198 212 231 293 302 264 249 251 235
219 216 230 254 260 265 279 281 279 276 270 265 274 285 277 239 232 217 199 203 190 180 170 170 185 191 194 195 220 214 182 171 173 191 207 204 209 238 268 308 320 296 264 271